TimeCDT,TemperatureF,Dew PointF,Humidity,Sea Level PressureIn,VisibilityMPH,Wind Direction,Wind SpeedMPH,Gust SpeedMPH,PrecipitationIn,Events,Conditions,WindDirDegrees,DateUTC
12:52 AM,63.0,60.1,90,30.06,10.0,Variable,3.5,-,N/A,,Clear,0,2013-07-24 05:52:00
1:52 AM,61.0,59.0,93,30.04,10.0,SSW,6.9,-,N/A,,Clear,200,2013-07-24 06:52:00
2:52 AM,60.1,57.9,93,30.06,10.0,Calm,Calm,-,N/A,,Clear,0,2013-07-24 07:52:00
3:52 AM,59.0,57.0,93,30.06,10.0,South,3.5,-,N/A,,Clear,190,2013-07-24 08:52:00
4:52 AM,60.1,57.0,90,30.07,10.0,Calm,Calm,-,N/A,,Clear,0,2013-07-24 09:52:00
5:52 AM,57.0,55.0,93,30.09,10.0,ENE,6.9,-,N/A,,Clear,60,2013-07-24 10:52:00
6:52 AM,57.9,55.9,93,30.09,10.0,Calm,Calm,-,N/A,,Clear,0,2013-07-24 11:52:00
7:52 AM,62.1,60.1,93,30.07,10.0,SSW,5.8,-,N/A,,Clear,210,2013-07-24 12:52:00
8:52 AM,68.0,63.0,84,30.08,10.0,SW,6.9,-,N/A,,Clear,230,2013-07-24 13:52:00
9:52 AM,73.9,64.0,71,30.07,10.0,SW,10.4,-,N/A,,Clear,220,2013-07-24 14:52:00
10:52 AM,78.1,64.0,62,30.06,10.0,WSW,17.3,-,N/A,,Clear,240,2013-07-24 15:52:00
11:52 AM,82.0,64.9,56,30.06,10.0,West,11.5,-,N/A,,Clear,270,2013-07-24 16:52:00
12:52 PM,84.9,63.0,48,30.04,10.0,NW,10.4,-,N/A,,Clear,310,2013-07-24 17:52:00
1:52 PM,84.9,61.0,44,30.03,10.0,NNW,10.4,17.3,N/A,,Partly Cloudy,330,2013-07-24 18:52:00
2:52 PM,89.1,60.1,38,30.00,10.0,Variable,5.8,18.4,N/A,,Scattered Clouds,0,2013-07-24 19:52:00
3:52 PM,88.0,55.9,34,29.99,10.0,NNW,9.2,-,N/A,,Clear,330,2013-07-24 20:52:00
4:52 PM,89.1,55.0,31,29.99,10.0,NNW,10.4,18.4,N/A,,Clear,330,2013-07-24 21:52:00
5:52 PM,86.0,55.0,35,30.00,10.0,NNW,6.9,-,N/A,,Clear,340,2013-07-24 22:52:00
6:52 PM,84.9,61.0,44,29.99,10.0,ENE,11.5,-,N/A,,Clear,60,2013-07-24 23:52:00
7:52 PM,82.9,60.1,46,29.97,10.0,ENE,10.4,-,N/A,,Clear,60,2013-07-25 00:52:00
8:52 PM,79.0,60.1,52,29.97,10.0,NE,9.2,-,N/A,,Clear,50,2013-07-25 01:52:00
9:52 PM,73.9,64.0,71,30.00,10.0,ENE,6.9,-,N/A,,Clear,70,2013-07-25 02:52:00
10:52 PM,72.0,64.9,78,30.01,10.0,East,5.8,-,N/A,,Clear,80,2013-07-25 03:52:00
11:52 PM,71.1,64.0,78,30.00,10.0,ESE,4.6,-,N/A,,Clear,120,2013-07-25 04:52:00